Regional Weather Roundup
Issued by NWS

Home | Current Version | Previous Version | Text Only | Print | Product List | Glossary On
Versions: 1 2 3 4 5 6 7 8 9 10 11 12 13 14 15 16 17 18 19 20 21 22 23 24 25 26 27 28 29 30 31 32 33 34 35 36 37 38 39 40 41 42 43 44 45 46 47 48 49 50
000
ASUS45 KREV 251910
RWRNV
NEVADA REGIONAL WEATHER ROUNDUP
NATIONAL WEATHER SERVICE RENO NV
1200 PM PDT FRI JUL 25 2014

NOTE: "FAIR" INDICATES FEW OR NO CLOUDS BELOW 12,000 FEET WITH NO
SIGNIFICANT WEATHER AND/OR OBSTRUCTIONS TO VISIBILITY.

NVZ001-003-004-252000-
WESTERN NEVADA

CITY           SKY/WX    TMP DP  RH WIND       PRES   REMARKS
RENO           MOSUNNY   85  30  13 CALM      30.06F
CARSON CITY    FAIR      84  28  13 E6        30.08F
SLIDE MTN        N/A     59  36  41 SW10        N/A
PYRAMID LAKE     N/A     73 N/A N/A N6          N/A
FALLON         MOSUNNY   84  27  12 NW8       30.04F
LOVELOCK       SUNNY     85  24  11 MISG      30.04F
HAWTHORNE      SUNNY     82  27  13 CALM      30.05F
$$

NVZ002-CAZ072-073-252000-
NORTHERN AND CENTRAL SIERRA

CITY           SKY/WX    TMP DP  RH WIND       PRES   REMARKS
S. LAKE TAHOE  SUNNY     77  42  28 NE7       30.18S
TRUCKEE        SUNNY     79  28  15 S15       30.17S
SQUAW VLY 8000 NOT AVBL
BLUE CANYON    SUNNY     74  40  29 VRB5      30.17R
MAMMOTH LAKES  FAIR      79  14   8 NW6       30.24S
BRIDGEPORT     FAIR      81  21  11 S12G23    30.18S
$$

NVZ030-031-036-252000-
NORTHERN NEVADA

CITY           SKY/WX    TMP DP  RH WIND       PRES   REMARKS
ELKO           SUNNY     84  25  11 CALM      30.09F
WINNEMUCCA     SUNNY     81  23  11 NE8       30.07F
WENDOVER       SUNNY     84  34  16 SE7       30.05F
$$

NVZ035-037-252000-
CENTRAL NEVADA

CITY           SKY/WX    TMP DP  RH WIND       PRES   REMARKS
ELY            SUNNY     90  22   8 SW18G30   30.16S
EUREKA           N/A     84  30  14 N8        30.13F
$$

NVZ013-014-252000-
SOUTH CENTRAL NEVADA

CITY           SKY/WX    TMP DP  RH WIND       PRES   REMARKS
TONOPAH        SUNNY     89  21   8 S8G17     30.10F
$$

NVZ017-020-022-252000-
SOUTHERN NEVADA

CITY           SKY/WX    TMP DP  RH WIND       PRES   REMARKS
LAS VEGAS      CLOUDY    98  52  21 S13G21    29.87S
N. LAS VEGAS   CLOUDY    99  49  18 S13       29.89F
NELLIS AFB     CLOUDY   102  53  19 S16G22    29.87F
HENDERSON      CLOUDY    96  54  24 SE14      29.94S
MERCURY        SUNNY    102  36  10 S21G31    29.95S
$$


USA.gov is the U.S. government's official web portal to all federal, state and local government web resources and services.